• In Uzbekistan
  • List of Countries
  • For 7 days
  • Water Temperature
  • Satellite Maps
  • Weather Map
  • Weather Widgets
  • user-avatar
    Login

    Hourly Weather Bruchkobel

    Today, 20 November, Monday

    Time Temperature Precipitation Wind Pressure Humidity
    00:00 +3°C° 0 mm 4 mps 754 mmHg 84%
    01:00 +3°C° 0 mm 4 mps 754 mmHg 85%
    02:00 +3°C° 0 mm 4 mps 754 mmHg 86%
    03:00 +3°C° 0 mm 4 mps 754 mmHg 87%
    04:00 +2°C° 0 mm 3 mps 754 mmHg 88%
    05:00 +2°C° 0 mm 3 mps 754 mmHg 88%
    06:00 +2°C° 0 mm 3 mps 754 mmHg 88%
    07:00 +2°C° 0 mm 3 mps 754 mmHg 88%
    08:00 +2°C° 0.1 mm 3 mps 755 mmHg 86%
    09:00 +2°C° 0.1 mm 3 mps 755 mmHg 84%
    10:00 +3°C° 0.1 mm 3 mps 755 mmHg 81%
    11:00 +3°C° 0.2 mm 4 mps 754 mmHg 79%
    12:00 +3°C° 0.2 mm 4 mps 754 mmHg 77%
    13:00 +4°C° 0.2 mm 4 mps 753 mmHg 74%
    14:00 +4°C° 0.2 mm 4 mps 753 mmHg 76%
    15:00 +4°C° 0.2 mm 4 mps 752 mmHg 79%
    16:00 +4°C° 0.2 mm 4 mps 751 mmHg 81%
    17:00 +3°C° 0.5 mm 5 mps 751 mmHg 83%
    18:00 +5°C° 0.5 mm 5 mps 750 mmHg 85%
    19:00 +5°C° 0.5 mm 5 mps 749 mmHg 87%
    20:00 +6°C° 0.2 mm 5 mps 749 mmHg 88%
    21:00 +5°C° 0.2 mm 6 mps 749 mmHg 88%
    22:00 +7°C° 0.2 mm 6 mps 749 mmHg 88%
    23:00 +7°C° 0.4 mm 6 mps 749 mmHg 88%

    Tomorrow, 21 November, Tuesday

    Time Temperature Precipitation Wind Pressure Humidity
    00:00 +7°C° 0.4 mm 6 mps 748 mmHg 88%
    01:00 +7°C° 0.4 mm 6 mps 748 mmHg 89%
    02:00 +7°C° 0.2 mm 6 mps 748 mmHg 89%
    03:00 +8°C° 0.2 mm 6 mps 748 mmHg 89%
    04:00 +8°C° 0.2 mm 5 mps 748 mmHg 89%
    05:00 +8°C° 0.1 mm 5 mps 748 mmHg 89%
    06:00 +8°C° 0.1 mm 5 mps 748 mmHg 90%
    07:00 +8°C° 0.1 mm 5 mps 749 mmHg 90%
    08:00 +8°C° 0.1 mm 5 mps 749 mmHg 90%
    09:00 +8°C° 0.1 mm 5 mps 749 mmHg 90%
    10:00 +8°C° 0.1 mm 5 mps 749 mmHg 90%
    11:00 +8°C° 0.4 mm 5 mps 749 mmHg 90%
    12:00 +8°C° 0.4 mm 5 mps 749 mmHg 89%
    13:00 +8°C° 0.4 mm 5 mps 749 mmHg 89%
    14:00 +8°C° 0.5 mm 5 mps 749 mmHg 88%
    15:00 +8°C° 0.5 mm 5 mps 749 mmHg 88%
    16:00 +8°C° 0.5 mm 4 mps 749 mmHg 87%
    17:00 +7°C° 0 mm 4 mps 749 mmHg 88%
    18:00 +7°C° 0 mm 4 mps 749 mmHg 90%
    19:00 +7°C° 0 mm 3 mps 749 mmHg 91%
    20:00 +7°C° 0 mm 3 mps 749 mmHg 92%
    21:00 +7°C° 0 mm 3 mps 749 mmHg 92%
    22:00 +7°C° 0 mm 3 mps 749 mmHg 93%
    23:00 +7°C° 0 mm 3 mps 749 mmHg 93%

    Day after tomorrow, 22 November, Wednesday

    Time Temperature Precipitation Wind Pressure Humidity
    00:00 +5°C° 0 mm 3 mps 749 mmHg 92%
    01:00 +5°C° 0 mm 3 mps 749 mmHg 92%
    02:00 +5°C° 0 mm 3 mps 749 mmHg 92%
    03:00 +5°C° 0 mm 3 mps 749 mmHg 92%
    04:00 +5°C° 0 mm 3 mps 748 mmHg 91%
    05:00 +5°C° 0 mm 3 mps 748 mmHg 91%
    06:00 +4°C° 0 mm 3 mps 748 mmHg 91%
    07:00 +4°C° 0 mm 3 mps 748 mmHg 91%
    08:00 +5°C° 0 mm 3 mps 749 mmHg 88%
    09:00 +7°C° 0 mm 3 mps 749 mmHg 85%
    10:00 +7°C° 0 mm 4 mps 749 mmHg 82%
    11:00 +8°C° 0 mm 4 mps 748 mmHg 78%
    12:00 +10°C° 0 mm 4 mps 748 mmHg 74%
    13:00 +11°C° 0 mm 4 mps 748 mmHg 70%
    14:00 +10°C° 0 mm 3 mps 748 mmHg 72%
    15:00 +9°C° 0 mm 3 mps 748 mmHg 74%
    16:00 +9°C° 0 mm 2 mps 747 mmHg 77%
    17:00 +8°C° 0 mm 2 mps 747 mmHg 78%
    18:00 +8°C° 0 mm 2 mps 747 mmHg 79%
    19:00 +7°C° 0 mm 2 mps 747 mmHg 81%
    20:00 +7°C° 0 mm 2 mps 747 mmHg 79%
    21:00 +7°C° 0 mm 3 mps 747 mmHg 78%
    22:00 +7°C° 0 mm 3 mps 747 mmHg 77%
    23:00 +7°C° 0 mm 3 mps 747 mmHg 76%

    23 November, Thursday

    Time Temperature Precipitation Wind Pressure Humidity
    00:00 +7°C° 0 mm 3 mps 747 mmHg 74%
    01:00 +7°C° 0 mm 3 mps 747 mmHg 73%
    02:00 +7°C° 0 mm 3 mps 748 mmHg 73%
    03:00 +7°C° 0 mm 4 mps 748 mmHg 73%
    04:00 +7°C° 0 mm 4 mps 748 mmHg 72%
    05:00 +7°C° 0 mm 4 mps 748 mmHg 74%
    06:00 +7°C° 0 mm 4 mps 749 mmHg 75%
    07:00 +7°C° 0 mm 4 mps 749 mmHg 77%
    08:00 +8°C° 0 mm 4 mps 750 mmHg 75%
    09:00 +10°C° 0 mm 4 mps 750 mmHg 74%
    10:00 +10°C° 0 mm 5 mps 751 mmHg 73%
    11:00 +10°C° 0 mm 5 mps 751 mmHg 72%
    12:00 +12°C° 0 mm 4 mps 751 mmHg 71%
    13:00 +13°C° 0 mm 4 mps 751 mmHg 70%
    14:00 +12°C° 0 mm 4 mps 751 mmHg 73%
    15:00 +12°C° 0 mm 3 mps 751 mmHg 76%
    16:00 +11°C° 0 mm 3 mps 752 mmHg 79%
    17:00 +11°C° 0 mm 3 mps 752 mmHg 81%
    18:00 +10°C° 0 mm 2 mps 752 mmHg 82%
    19:00 +10°C° 0 mm 2 mps 753 mmHg 84%
    20:00 +10°C° 0 mm 2 mps 753 mmHg 85%
    21:00 +9°C° 0 mm 2 mps 753 mmHg 85%
    22:00 +9°C° 0 mm 2 mps 753 mmHg 86%
    23:00 +9°C° 0 mm 2 mps 753 mmHg 86%

    24 November, Friday

    Time Temperature Precipitation Wind Pressure Humidity
    00:00 +9°C° 0 mm 2 mps 753 mmHg 86%
    01:00 +9°C° 0 mm 2 mps 753 mmHg 86%
    02:00 +8°C° 0 mm 2 mps 753 mmHg 86%
    03:00 +8°C° 0 mm 2 mps 753 mmHg 87%
    04:00 +8°C° 0 mm 2 mps 753 mmHg 87%
    05:00 +8°C° 0 mm 2 mps 753 mmHg 86%
    06:00 +8°C° 0 mm 2 mps 753 mmHg 86%
    07:00 +8°C° 0 mm 2 mps 753 mmHg 86%
    08:00 +8°C° 0 mm 2 mps 753 mmHg 82%
    09:00 +9°C° 0 mm 2 mps 753 mmHg 79%
    10:00 +10°C° 0 mm 2 mps 753 mmHg 76%
    11:00 +12°C° 0 mm 2 mps 753 mmHg 72%
    12:00 +12°C° 0 mm 3 mps 752 mmHg 68%
    13:00 +13°C° 0 mm 3 mps 752 mmHg 64%
    14:00 +13°C° 0 mm 2 mps 752 mmHg 68%
    15:00 +13°C° 0 mm 2 mps 752 mmHg 71%
    16:00 +12°C° 0 mm 2 mps 751 mmHg 74%
    17:00 +10°C° 0 mm 2 mps 751 mmHg 75%
    18:00 +10°C° 0 mm 2 mps 751 mmHg 77%
    19:00 +9°C° 0 mm 2 mps 751 mmHg 78%
    20:00 +9°C° 0 mm 2 mps 751 mmHg 77%
    21:00 +9°C° 0 mm 2 mps 751 mmHg 75%
    22:00 +9°C° 0 mm 2 mps 751 mmHg 74%
    23:00 +8°C° 0 mm 2 mps 751 mmHg 73%

    25 November, Saturday

    Time Temperature Precipitation Wind Pressure Humidity
    00:00 +8°C° 0 mm 2 mps 751 mmHg 73%
    01:00 +8°C° 0 mm 2 mps 751 mmHg 72%
    02:00 +7°C° 0 mm 2 mps 750 mmHg 71%
    03:00 +7°C° 0 mm 2 mps 750 mmHg 69%
    04:00 +7°C° 0 mm 2 mps 750 mmHg 68%
    05:00 +7°C° 0 mm 2 mps 750 mmHg 66%
    06:00 +7°C° 0 mm 2 mps 749 mmHg 64%
    07:00 +7°C° 0 mm 2 mps 749 mmHg 62%
    08:00 +8°C° 0 mm 3 mps 749 mmHg 61%
    09:00 +9°C° 0 mm 3 mps 749 mmHg 60%
    10:00 +9°C° 0 mm 3 mps 749 mmHg 59%
    11:00 +10°C° 0 mm 4 mps 749 mmHg 55%
    12:00 +12°C° 0 mm 4 mps 748 mmHg 52%
    13:00 +13°C° 0 mm 5 mps 748 mmHg 49%
    14:00 +13°C° 0 mm 4 mps 748 mmHg 53%
    15:00 +12°C° 0 mm 4 mps 748 mmHg 57%
    16:00 +12°C° 0 mm 4 mps 748 mmHg 61%
    17:00 +12°C° 0 mm 4 mps 749 mmHg 66%
    18:00 +12°C° 0 mm 5 mps 749 mmHg 71%
    19:00 +12°C° 0 mm 5 mps 750 mmHg 76%
    20:00 +10°C° 0 mm 5 mps 751 mmHg 77%
    21:00 +10°C° 0 mm 5 mps 751 mmHg 78%
    22:00 +9°C° 0 mm 5 mps 752 mmHg 79%
    23:00 +9°C° 0 mm 5 mps 752 mmHg 79%
    Show more